星链-4036 (STARLINK-4036 )

导读 | 豆包AI

STARLINK-4036是美国太空探索技术公司星链星座的成员,于2022年6月17日发射入轨。星链计划旨在构建全球卫星互联网,为全球偏远地区、海洋等网络薄弱区域提供高速互联网接入服务。该卫星遵循低轨卫星星座部署方案,和同系列其他卫星配合,持续扩充星链网络容量,提升全球网络覆盖能力。

Basic Information
目录编号:
52837
目录名称:
STARLINK-4036
国际标识:
2022-062H
轨道中心:
EARTH
卫星名称:
星链-4036
卫星全名:
星链-4036 (STARLINK-4036 )
卫星状态:
在轨 (已飞行1413 天)
发射日期:
2022-06-17 UTC
国别 :
美国 (US)
星等 :
--
Orbit Information
数据来源 国际轨道数据 AOE轨道数据
星历时间 2026-04-30T17:55:42+0800
12小时前
查看轨道信息
2026-04-29T08:00:00+0800
1天前
查看轨道信息
半长轴 6917.896km 6917.904km
偏心率 0.0001199 0.000154
轨道倾角 53.217° 53.215°
近地点辐角 80.490° 84.056°
升交点赤经 161.925° 168.271°
平近点角 279.623° 153.008°
近地点 538.929km 538.701km
远地点 540.589km 540.833km
周期 95.438分钟 95.438分钟
每日圈数 15.088352 15.088323
Detailed Information
固有亮度:
5
最大亮度:
2.5
卫星平台:
Starlink v1.5
覆盖范围:
全球
运营商:
太空探索技术公司
运营商所在国:
美国
制造商(研发单位):
太空探索技术公司
制造商所在国:
美国
使用方式:
暂无
Satellite Introduction
星链(Starlink)计划是由太空探索技术公司(SpaceX)提出的一个巨型低轨卫星互联网星座项目,计划在2019年至2024年间在太空搭建由约1.2万颗卫星组成的“星链”网络,其中1584颗将部署在地球上空550千米处的近地轨道,并从2020年开始工作。该卫星仍在工作。
2D Orbit Map
3D Orbit Map
Orbit Altitude Analysis Chart
Orbit Inclination Analysis Chart
Orbit Comprehensive Analysis Chart
View Comprehensive Chart